Weather History for KOKK - January, 2013

Change the Weather History Date:

Monday, January 14, 2013

  Actual Average (KGUS) Record (KGUS)
Temperature  
Mean Temperature 18 °F -  
Max Temperature 21 °F 28 °F 48 °F (2002)
Min Temperature 15 °F 16 °F -2 °F (1997)
Degree Days  
Heating Degree Days 47    
Moisture  
Dew Point 15 °F    
Average Humidity 82    
Maximum Humidity 93    
Minimum Humidity 68    
Precipitation  
Precipitation 0.00 in - - ()
Sea Level Pressure  
Sea Level Pressure 30.37 in    
Wind  
Wind Speed 10 mph (NNW)    
Max Wind Speed 18 mph    
Max Gust Speed 24 mph    
Visibility 10 miles    
Events      
Averages and records for this station are not official NWS values.
T = Trace of Precipitation, MM = Missing Value Source: NWS Daily Summary

Daily Weather History Graph

Daily Weather History Graph

Search for Another Location

Airport or City:

Trip Planner

Search our weather history database for the weather conditions in past years. The results will help you decide how hot, cold, wet, or windy it might be!

Date:

Astronomy

Jan. 14, 2013 Rise Set
Actual Time 7:05 AM CST 4:41 PM CST
Civil Twilight 6:35 AM CST 5:11 PM CST
Nautical Twilight 6:02 AM CST 5:45 PM CST
Astronomical Twilight 5:29 AM CST 6:17 PM CST
Moon 8:38 AM CST (1/14) 8:27 PM CST (1/14)
Length of Visible Light 10h 35m
Length of Day
9h 35m
Waxing Crescent, 11% of the Moon is Illuminated
Jan 14
Waxing Crescent
Jan 18
First Quarter
Jan 26
Full
Feb 3
Last Quarter
Feb 10
New

Hourly Weather History & Observations

Time (CST) Temp. Windchill Dew Point Humidity Pressure Visibility Wind Dir Wind Speed Gust Speed Precip Events Conditions
12:15 AM 19.4 °F 5.0 °F 15.8 °F 86% 30.22 in 10.0 mi WNW 16.1 mph - N/A   Overcast
12:35 AM 19.4 °F 4.5 °F 15.8 °F 86% 30.23 in 10.0 mi WNW 17.3 mph 24.2 mph N/A   Overcast
12:55 AM 19.4 °F 5.5 °F 15.8 °F 86% 30.24 in 10.0 mi WNW 15.0 mph - N/A   Overcast
1:15 AM 19.4 °F 6.6 °F 14.0 °F 80% 30.25 in 10.0 mi NW 12.7 mph - N/A   Overcast
1:35 AM 19.4 °F 4.1 °F 15.8 °F 86% 30.26 in 10.0 mi WNW 18.4 mph - N/A   Overcast
1:55 AM 19.4 °F 5.0 °F 15.8 °F 86% 30.27 in 10.0 mi WNW 16.1 mph - N/A   Overcast
2:15 AM 19.4 °F 5.0 °F 14.0 °F 80% 30.28 in 10.0 mi West 16.1 mph - N/A   Overcast
2:55 AM 17.6 °F 4.3 °F 14.0 °F 86% 30.30 in 10.0 mi NW 12.7 mph - N/A   Overcast
3:15 AM 17.6 °F 4.3 °F 12.2 °F 79% 30.30 in 10.0 mi NW 12.7 mph - N/A   Overcast
3:35 AM 17.6 °F 3.2 °F 12.2 °F 79% 30.31 in 10.0 mi WNW 15.0 mph - N/A   Mostly Cloudy
4:15 AM 17.6 °F 4.3 °F 12.2 °F 79% 30.31 in 10.0 mi NW 12.7 mph - N/A   Mostly Cloudy
4:35 AM 17.6 °F 3.2 °F 14.0 °F 86% 30.31 in 10.0 mi NW 15.0 mph - N/A   Mostly Cloudy
4:55 AM 17.6 °F 4.3 °F 12.2 °F 79% 30.32 in 10.0 mi NW 12.7 mph - N/A   Mostly Cloudy
5:15 AM 17.6 °F 5.0 °F 12.2 °F 79% 30.32 in 10.0 mi NW 11.5 mph - N/A   Mostly Cloudy
5:35 AM 15.8 °F 1.4 °F 12.2 °F 86% 30.32 in 10.0 mi NNW 13.8 mph - N/A   Mostly Cloudy
5:55 AM 15.8 °F 3.4 °F 12.2 °F 86% 30.35 in 10.0 mi WNW 10.4 mph - N/A   Overcast
6:15 AM 15.8 °F 2.7 °F 12.2 °F 86% 30.35 in 10.0 mi NW 11.5 mph - N/A   Overcast
6:35 AM 15.8 °F 2.1 °F 10.4 °F 79% 30.36 in 10.0 mi NNW 12.7 mph - N/A   Mostly Cloudy
6:55 AM 15.8 °F 4.2 °F 10.4 °F 79% 30.37 in 10.0 mi NW 9.2 mph - N/A   Overcast
7:15 AM 15.8 °F 2.7 °F 10.4 °F 79% 30.38 in 10.0 mi NW 11.5 mph - N/A   Mostly Cloudy
7:35 AM 15.8 °F 4.2 °F 12.2 °F 86% 30.39 in 10.0 mi NW 9.2 mph - N/A   Overcast
7:55 AM 15.8 °F 4.2 °F 12.2 °F 86% 30.40 in 9.0 mi NNW 9.2 mph - N/A   Overcast
8:15 AM 17.6 °F 5.7 °F 10.4 °F 73% 30.40 in 10.0 mi NNW 10.4 mph - N/A   Scattered Clouds
8:35 AM 17.6 °F 7.3 °F 12.2 °F 79% 30.40 in 10.0 mi North 8.1 mph - N/A   Scattered Clouds
8:55 AM 17.6 °F 7.3 °F 10.4 °F 73% 30.41 in 10.0 mi North 8.1 mph - N/A   Scattered Clouds
9:15 AM 17.6 °F 7.3 °F 12.2 °F 79% 30.40 in 10.0 mi North 8.1 mph - N/A   Mostly Cloudy
9:35 AM 17.6 °F 8.2 °F 12.2 °F 79% 30.39 in 6.0 mi NNE 6.9 mph - N/A   Overcast
9:55 AM 19.4 °F 9.5 °F 12.2 °F 74% 30.39 in 7.0 mi North 8.1 mph - N/A   Mostly Cloudy
10:15 AM 19.4 °F 14.3 °F 14.0 °F 80% 30.38 in 5.0 mi NNE 3.5 mph - N/A   Overcast
10:35 AM 19.4 °F 12.8 °F 12.2 °F 74% 30.39 in 7.0 mi NE 4.6 mph - N/A   Overcast
10:55 AM 19.4 °F 11.5 °F 14.0 °F 80% 30.38 in 10.0 mi North 5.8 mph - N/A   Overcast
11:15 AM 19.4 °F 14.3 °F 15.8 °F 86% 30.39 in 9.0 mi North 3.5 mph - N/A   Overcast
11:35 AM 19.4 °F 14.3 °F 15.8 °F 86% 30.40 in 10.0 mi ENE 3.5 mph - N/A   Overcast
11:55 AM 19.4 °F - 12.2 °F 74% 30.40 in 10.0 mi Calm Calm - N/A   Overcast
12:15 PM 21.2 °F 14.9 °F 15.8 °F 80% 30.39 in 8.0 mi North 4.6 mph - N/A   Overcast
12:35 PM 21.2 °F - 14.0 °F 74% 30.39 in 10.0 mi Calm Calm - N/A   Overcast
12:55 PM 21.2 °F - 14.0 °F 74% 30.39 in 10.0 mi Calm Calm - N/A   Overcast
1:15 PM 21.2 °F - 17.6 °F 86% 30.39 in 10.0 mi Calm Calm - N/A   Overcast
1:35 PM 21.2 °F - 12.2 °F 68% 30.40 in 10.0 mi Calm Calm - N/A   Overcast
1:55 PM 21.2 °F 16.4 °F 17.6 °F 86% 30.40 in 10.0 mi NNW 3.5 mph - N/A   Overcast
2:15 PM 21.2 °F - 15.8 °F 80% 30.42 in 10.0 mi Calm Calm - N/A   Overcast
2:35 PM 21.2 °F 16.4 °F 15.8 °F 80% 30.43 in 10.0 mi NW 3.5 mph - N/A   Overcast
2:55 PM 21.2 °F 16.4 °F 15.8 °F 80% 30.44 in 10.0 mi NNW 3.5 mph - N/A   Overcast
3:15 PM 21.2 °F 16.4 °F 15.8 °F 80% 30.44 in 10.0 mi West 3.5 mph - N/A   Overcast
3:35 PM 21.2 °F - 15.8 °F 80% 30.44 in 10.0 mi Calm Calm - N/A   Overcast
3:55 PM 21.2 °F 16.4 °F 17.6 °F 86% 30.43 in 10.0 mi WNW 3.5 mph - N/A   Mostly Cloudy
4:15 PM 21.2 °F 16.4 °F 15.8 °F 80% 30.43 in 10.0 mi NW 3.5 mph - N/A   Scattered Clouds
4:35 PM 21.2 °F 13.6 °F 17.6 °F 86% 30.42 in 10.0 mi NW 5.8 mph - N/A   Mostly Cloudy
4:55 PM 21.2 °F 13.6 °F 15.8 °F 80% 30.41 in 10.0 mi North 5.8 mph - N/A   Overcast
5:15 PM 21.2 °F 13.6 °F 15.8 °F 80% 30.42 in 10.0 mi North 5.8 mph - N/A   Mostly Cloudy
5:35 PM 21.2 °F 13.6 °F 17.6 °F 86% 30.41 in 10.0 mi North 5.8 mph - N/A   Mostly Cloudy
5:55 PM 21.2 °F 12.6 °F 15.8 °F 80% 30.40 in 10.0 mi North 6.9 mph - N/A   Mostly Cloudy
6:15 PM 21.2 °F 13.6 °F 15.8 °F 80% 30.40 in 10.0 mi North 5.8 mph - N/A   Mostly Cloudy
6:35 PM 21.2 °F 13.6 °F 17.6 °F 86% 30.39 in 10.0 mi North 5.8 mph - N/A   Scattered Clouds
6:55 PM 19.4 °F 10.4 °F 15.8 °F 86% 30.40 in 10.0 mi North 6.9 mph - N/A   Clear
7:15 PM 19.4 °F 8.6 °F 15.8 °F 86% 30.40 in 10.0 mi North 9.2 mph - N/A   Clear
7:35 PM 19.4 °F 10.4 °F 15.8 °F 86% 30.40 in 10.0 mi North 6.9 mph - N/A   Clear
7:55 PM 19.4 °F 12.8 °F 15.8 °F 86% 30.39 in 10.0 mi North 4.6 mph - N/A   Clear
8:15 PM 19.4 °F 14.3 °F 15.8 °F 86% 30.39 in 10.0 mi North 3.5 mph - N/A   Clear
8:35 PM 19.4 °F 12.8 °F 15.8 °F 86% 30.39 in 10.0 mi North 4.6 mph - N/A   Clear
8:55 PM 19.4 °F 12.8 °F 17.6 °F 93% 30.39 in 10.0 mi North 4.6 mph - N/A   Clear
9:15 PM 19.4 °F 14.3 °F 15.8 °F 86% 30.38 in 10.0 mi North 3.5 mph - N/A   Clear
9:35 PM 19.4 °F 11.5 °F 15.8 °F 86% 30.38 in 10.0 mi North 5.8 mph - N/A   Clear
9:55 PM 19.4 °F 10.4 °F 15.8 °F 86% 30.38 in 10.0 mi North 6.9 mph - N/A   Clear
10:15 PM 19.4 °F 11.5 °F 17.6 °F 93% 30.39 in 10.0 mi North 5.8 mph - N/A   Clear
10:35 PM 19.4 °F 12.8 °F 15.8 °F 86% 30.39 in 10.0 mi North 4.6 mph - N/A   Clear
10:55 PM 19.4 °F 14.3 °F 15.8 °F 86% 30.39 in 8.0 mi North 3.5 mph - N/A   Clear
11:15 PM 19.4 °F 14.3 °F 17.6 °F 93% 30.39 in 9.0 mi North 3.5 mph - N/A   Clear
11:35 PM 19.4 °F 14.3 °F 15.8 °F 86% 30.39 in 8.0 mi North 3.5 mph - N/A   Clear
11:55 PM 17.6 °F 10.7 °F 14.0 °F 86% 30.39 in 7.0 mi North 4.6 mph - N/A   Clear